User: anonymous   Login
Location: Linz
(48.3300°N, 14.3000°E)
Time: 22:51:50
(UTC+02:00)
Language:

Tiangong 2 - Orbit

View from above orbital plane
View from above orbital plane
View from above satellite
View from above satellite

Ground track
Ground track

The orbit data is extracted from the following two-line orbital elements,

1 41765U 16057A   18114.43027541  .00006831  00000-0  83291-4 0  9998
2 41765  42.7849 303.4300 0004877 255.8577 181.0278 15.61061347 91581
Epoch (UTC): 24 April 2018 10:19:35
Eccentricity: 0.0004877
inclination: 42.7849°
perigee height: 381 km
apogee height: 388 km
right ascension of ascending node: 303.4300°
argument of perigee: 255.8577°
revolutions per day: 15.61061347
mean anomaly at epoch: 181.0278°
orbit number at epoch: 9158

The dashed part of the orbit path shows where the satellite is in the earth's shadow,  

DLR